Tracking 19219 objects as of 19-Jul-2018
HD Live streaming from Space Station
objects crossing your sky now

FENGYUN 1C DEB

Track FENGYUN 1C DEB now!
10-day predictions


NORAD ID: 30661
Int'l Code: 1999-025APT
Perigee: 727.8 km
Apogee: 942.2 km
Inclination: 99.4 °
Period: 101.5 minutes
Semi major axis: 7206 km
RCS: 0.0103 m2 (small)
Launch date: May 10, 1999
Source: People's Republic of China (PRC)
Launch site: Taiyaun Space Center, China (TSC)

Note: This is SATELLITE DEBRIS
aabbcc
Your satellite tracking list
Your tracking list is empty




NASA's NSSDC Master Catalog

Two Line Element Set (TLE):
1 30661U 99025APT 18199.84637339  .00000033  00000-0  34780-4 0  9994
2 30661  99.4365 157.3289 0148743  99.4393 262.3629 14.19248730595573
Source of the keplerian elements: AFSPC